TimeEDT,TemperatureF,Dew PointF,Humidity,Sea Level PressureIn,VisibilityMPH,Wind Direction,Wind SpeedMPH,Gust SpeedMPH,PrecipitationIn,Events,Conditions,WindDirDegrees,DateUTC
12:00 AM,55.4,51.8,88,30.23,25.0,NNW,2.3,-,N/A,,Clear,340,2013-08-24 04:00:00
1:00 AM,53.6,50.0,88,30.24,25.0,Calm,Calm,-,N/A,,Clear,0,2013-08-24 05:00:00
2:00 AM,51.8,50.0,94,30.25,25.0,NNW,2.3,-,N/A,,Clear,340,2013-08-24 06:00:00
3:00 AM,50.0,48.2,94,30.26,25.0,Calm,Calm,-,N/A,,Clear,0,2013-08-24 07:00:00
4:00 AM,48.2,46.4,93,30.27,25.0,NNW,4.6,-,N/A,,Clear,330,2013-08-24 08:00:00
5:00 AM,48.2,48.2,100,30.28,25.0,NW,2.3,-,N/A,,Clear,320,2013-08-24 09:00:00
6:00 AM,46.4,44.6,93,30.30,45.0,Calm,Calm,-,N/A,,Partly Cloudy,0,2013-08-24 10:00:00
7:00 AM,46.4,46.4,100,30.33,45.0,Calm,Calm,-,N/A,,Scattered Clouds,0,2013-08-24 11:00:00
8:00 AM,55.4,51.8,88,30.35,45.0,West,3.5,-,N/A,,Scattered Clouds,270,2013-08-24 12:00:00
9:00 AM,60.8,51.8,72,30.35,45.0,West,3.5,-,N/A,,Mostly Cloudy,270,2013-08-24 13:00:00
10:00 AM,64.4,50.0,59,30.36,45.0,SSW,3.5,-,N/A,,Scattered Clouds,200,2013-08-24 14:00:00
11:00 AM,66.2,51.8,60,30.36,35.0,West,6.9,-,N/A,,Scattered Clouds,280,2013-08-24 15:00:00
12:00 PM,69.8,53.6,56,30.35,35.0,SW,5.8,-,N/A,,Scattered Clouds,220,2013-08-24 16:00:00
1:00 PM,69.8,53.6,56,30.34,45.0,SSW,9.2,-,N/A,,Partly Cloudy,210,2013-08-24 17:00:00
2:00 PM,71.6,51.8,50,30.33,45.0,South,6.9,-,N/A,,Partly Cloudy,190,2013-08-24 18:00:00
3:00 PM,71.6,50.0,46,30.32,45.0,WSW,5.8,-,N/A,,Partly Cloudy,240,2013-08-24 19:00:00
4:00 PM,71.6,50.0,46,30.32,45.0,SW,9.2,-,N/A,,Partly Cloudy,230,2013-08-24 20:00:00
5:00 PM,71.6,50.0,46,30.31,45.0,SW,5.8,-,N/A,,Partly Cloudy,220,2013-08-24 21:00:00
6:00 PM,69.8,51.8,53,30.31,45.0,SW,4.6,-,N/A,,Partly Cloudy,230,2013-08-24 22:00:00
7:00 PM,68.0,51.8,56,30.31,45.0,SW,5.8,-,N/A,,Partly Cloudy,220,2013-08-24 23:00:00
8:00 PM,62.6,51.8,68,30.32,25.0,SW,2.3,-,N/A,,Partly Cloudy,220,2013-08-25 00:00:00
9:00 PM,62.6,51.8,68,30.35,25.0,West,2.3,-,N/A,,Partly Cloudy,270,2013-08-25 01:00:00
10:00 PM,57.2,51.8,82,30.35,25.0,West,3.5,-,N/A,,Partly Cloudy,260,2013-08-25 02:00:00
11:00 PM,55.4,51.8,88,30.34,25.0,West,2.3,-,N/A,,Partly Cloudy,260,2013-08-25 03:00:00